sat.trackr.live / text

‹ back to catalog

STARLINK-3564

NORAD 52302 · 2022-041AT

PAYLOAD ACTIVE UNKNOWN

§ Identity

Operator
Country
US
Launch date
2022-04-21
Launch site
AFETR
Launch vehicle
Mass (kg)
RCS (m²)

Purposes: comms

External: N2YO · Heavens-Above · Gunter

§ Orbital elements

Epoch: 2026-09-20T01:25:00.425280Z

Period
94.01 min
Inclination
53.1587°
Eccentricity
0.0001187
Mean motion
15.31702993 rev/d
Perigee alt
469.9 km
Apogee alt
471.5 km
Semi-major
6,848.9 km
B*
1.6680e-5
RAAN
281.8571°
Arg perigee
71.2238°
Mean anomaly
288.8892°
Rev number
24,418

§ Raw data

STARLINK-35641 52302U 22041AT  26263.05903270  .00000153  00000+0  16680-4 0  99992 52302  53.1587 281.8571 0001187  71.2238 288.8892 15.31702993244189

JSON: /api/v1/satellites/52302 · /tle

For live sub-satellite position, see the globe view (requires WebGL).

§ Visibility from observer

Set your observer location to see the next 7 days of passes ≥ 10°. The values pass through the URL so the page stays shareable.

No JS? Fill the form by hand. The geolocation button needs JavaScript.